Location: Delettes
(50.6178°N, 2.2123°E)
Time: 06:43:14
(UTC+00:00)

ADEOS Rocket - Pass Details

Date: 27 February 2020
Orbit: 859 x 1306 km, 98.7° (Epoch: 09 April)

Event Time Altitude Azimuth Distance (km) Brightness Sun altitude
Rises 18:04:45 0° 17° (NNE) 4,290 6.1 -6.6°
Reaches altitude 10° 18:07:36 10° 22° (NNE) 3,332 5.5 -7.0°
Maximum altitude 18:15:09 50° 97° (E) 1,614 3.8 -8.2°
Drops below altitude 10° 18:22:27 10° 171° (S) 3,232 5.6 -9.4°
Sets 18:25:10 0° 177° (S) 4,152 6.3 -9.8°
